Regional Weather Roundup
Issued by NWS Cleveland, OH

Home | Current Version | Previous Version | Text Only | Print | Product List | Glossary On
Versions: 1 2 3 4 5 6 7 8 9 10 11 12 13 14 15 16 17 18 19 20 21 22 23 24 25 26 27 28 29 30 31 32 33 34 35 36 37 38 39 40 41 42 43 44 45 46 47 48 49 50
000
ASUS41 KCLE 162112
RWRCLE
OHIO REGIONAL WEATHER ROUNDUP
NATIONAL WEATHER SERVICE WILMINGTON, OH
400 PM EST MON JAN 16 2017

NOTE: "FAIR" INDICATES FEW OR NO CLOUDS BELOW 12,000 FEET WITH NO
SIGNIFICANT WEATHER AND/OR OBSTRUCTIONS TO VISIBILITY.

OHZ001>008-015>018-024>027-034-035-043-044-162200-
   NORTHWEST OHIO

CITY           SKY/WX    TMP DP  RH WIND       PRES   REMARKS
DEFIANCE       FOG       35  32  88 E6        30.19S VSB 3/4
FINDLAY        CLOUDY    39  35  86 E6        30.19S FOG
TOLEDO EXPRESS CLOUDY    36  28  73 E6        30.20S
TOLEDO EXEC    CLOUDY    35  31  85 E6        30.22F FOG
LIMA           CLOUDY    38  37  97 E7        30.17S FOG
$$

OHZ009>014-019>023-028>033-038-089-162200-
   NORTHEAST OHIO

CITY           SKY/WX    TMP DP  RH WIND       PRES   REMARKS
CLE-HOPKINS    CLOUDY    38  32  79 SE6       30.26F
CLE-LAKEFRONT  CLOUDY    34  28  79 E3        30.25S
CUY CO. ARPT   CLOUDY    41  27  56 SE6       30.25S
LORAIN-ELYRIA  CLOUDY    36  32  85 E7        30.22F FOG
ASHTABULA      NOT AVBL
AKRON-CANTON   CLOUDY    38  33  82 E5        30.24S
WOOSTER        CLOUDY    36  33  89 E8        30.22F FOG
MANSFIELD      CLOUDY    37  35  92 SE10      30.20F FOG
YOUNGSTOWN     LGT RAIN  37  22  54 CALM      30.26R
$$

OHZ042-051>053-060>062-070>072-077>081-162200-
  SOUTHWEST OHIO

CITY           SKY/WX    TMP DP  RH WIND       PRES   REMARKS
CINC-COVINGTON CLOUDY    50  48  93 SE6       30.15F FOG
CINC-LUNKEN    CLOUDY    50  48  93 W5        30.17F
HAMILTON       CLOUDY    50  46  86 SE5       30.17F
DAYTON         CLOUDY    47  45  93 SE7       30.16F
WRIGHT-PAT AFB CLOUDY    49  47  91 E5        30.16F
DAYTON GENERAL CLOUDY    50  46  86 E5        30.15F
WILMINGTON     FAIR      50  48  93 E5        30.16F
$$

OHZ036-037-039>041-045>050-054>059-063>069-073>076-082>088-162200-
  CENTRAL AND SOUTHEAST OHIO

CITY           SKY/WX    TMP DP  RH WIND       PRES   REMARKS
COLUMBUS       CLOUDY    47  43  86 SE5       30.20F
OSU AIRPORT    CLOUDY    45  43  93 SE5       30.19F
BOLTON FIELD   CLOUDY    45  43  93 E3        30.19F
RICKENBACK AFB   N/A     47  45  93 NE5       30.18F
NEWARK         LGT RAIN  44  40  85 NE3       30.20S FOG
MARION         CLOUDY    40  37  89 E7        30.19F FOG
LANCASTER      FAIR      50  44  80 SE6       30.20F
ZANESVILLE     LGT RAIN  46  40  79 E3        30.22S
NEW PHILLY     CLOUDY    40  35  83 CALM      30.24F
$$




USA.gov is the U.S. government's official web portal to all federal, state and local government web resources and services.